Location: Byhalia Creek
(34.8270°N, 89.8040°W)
Time: 08:18:32
(UTC+00:00)

Cosmos 2263 Rocket - Pass Details

Date: 22 April 2026
Orbit: 824 x 846 km, 71.0° (Epoch: 15 May)

Event Time Altitude Azimuth Distance (km) Brightness Sun altitude
Rises 10:48:26 0° 184° (S) 3,382 5.1 -6.7°
Reaches altitude 10° 10:50:57 10° 178° (S) 2,449 4.4 -6.3°
Maximum altitude 10:56:18 47° 106° (ESE) 1,102 3.3 -5.2°
Drops below altitude 10° 11:01:39 10° 34° (NE) 2,449 5.5 -4.2°
Sets 11:04:09 0° 29° (NNE) 3,383 6.1 -3.7°
